Location: G�rlitz
(51.1670°N, 15.0000°E)
Time: 01:53:25
(UTC+02:00)

NOAA 15 - Visible Passes

Search period start: 19 April 2026 00:00
Search period end: 29 April 2026 00:00
Orbit: 794 x 809 km, 98.5° (Epoch: 18 April)

Date Brightness Start Highest point End Pass type
(mag) Time Alt. Az. Time Alt. Az. Time Alt. Az.
19 Apr 7.6 21:00:19 10° WSW 21:02:49 13° W 21:05:19 10° WNW visible
23 Apr 7.5 20:54:37 10° WSW 20:57:29 15° W 21:00:22 10° NW visible
27 Apr 7.4 20:48:58 10° SW 20:52:10 16° W 20:55:22 10° NW visible
